Time,TemperatureF,DewpointF,PressureIn,WindDirection,WindDirectionDegrees,WindSpeedMPH,WindSpeedGustMPH,Humidity,HourlyPrecipIn,Conditions,Clouds,dailyrainin,SoftwareType,DateUTC
2013-02-14 00:09:00,39.8,25.8,29.79,SW,226,3.0,7.0,57,0.00,,---,0.00,VWS V14.01,2013-02-14 06:09:00,
2013-02-14 00:24:00,39.6,25.6,29.80,SW,227,3.0,5.0,57,0.00,,---,0.00,VWS V14.01,2013-02-14 06:24:00,
2013-02-14 00:39:00,39.3,25.8,29.80,SW,236,3.0,6.0,58,0.00,,---,0.00,VWS V14.01,2013-02-14 06:39:00,
2013-02-14 00:54:00,39.3,25.8,29.80,SW,219,3.0,6.0,58,0.00,,---,0.00,VWS V14.01,2013-02-14 06:54:00,
2013-02-14 01:09:00,39.1,25.6,29.81,SW,225,3.0,5.0,58,0.00,,---,0.00,VWS V14.01,2013-02-14 07:09:00,
2013-02-14 01:24:00,38.9,25.8,29.81,SW,229,1.0,6.0,59,0.00,,---,0.00,VWS V14.01,2013-02-14 07:24:00,
2013-02-14 01:39:00,38.8,25.7,29.81,SW,227,3.0,5.0,59,0.00,,---,0.00,VWS V14.01,2013-02-14 07:39:00,
2013-02-14 01:54:00,38.8,25.7,29.80,SW,227,4.0,6.0,59,0.00,,---,0.00,VWS V14.01,2013-02-14 07:54:00,
2013-02-14 02:09:00,38.6,25.9,29.81,SW,219,4.0,5.0,60,0.00,,---,0.00,VWS V14.01,2013-02-14 08:09:00,
2013-02-14 02:24:00,38.3,25.6,29.81,SW,220,2.0,6.0,60,0.00,,---,0.00,VWS V14.01,2013-02-14 08:24:00,
2013-02-14 02:39:00,37.9,25.7,29.81,SW,227,4.0,7.0,61,0.00,,---,0.00,VWS V14.01,2013-02-14 08:39:00,
2013-02-14 02:54:00,38.0,26.1,29.81,SW,230,6.0,8.0,62,0.00,,---,0.00,VWS V14.01,2013-02-14 08:54:00,
2013-02-14 03:09:00,37.7,26.6,29.82,WSW,240,1.0,6.0,64,0.00,,---,0.00,VWS V14.01,2013-02-14 09:09:00,
2013-02-14 03:24:00,37.3,26.6,29.82,West,281,3.0,6.0,65,0.00,,---,0.00,VWS V14.01,2013-02-14 09:24:00,
2013-02-14 03:39:00,38.1,27.8,29.83,WNW,286,10.0,10.0,66,0.00,,---,0.00,VWS V14.01,2013-02-14 09:39:00,
2013-02-14 03:54:00,38.9,28.1,29.83,SW,236,0.0,10.0,65,0.00,,---,0.00,VWS V14.01,2013-02-14 09:54:00,
2013-02-14 04:09:00,38.7,28.0,29.84,SW,229,0.0,3.0,65,0.00,,---,0.00,VWS V14.01,2013-02-14 10:09:00,
2013-02-14 04:24:00,38.3,28.3,29.84,WNW,284,2.0,5.0,67,0.00,,---,0.00,VWS V14.01,2013-02-14 10:24:00,
2013-02-14 04:39:00,38.5,29.2,29.84,WNW,284,2.0,4.0,69,0.00,,---,0.00,VWS V14.01,2013-02-14 10:39:00,
2013-02-14 04:54:00,38.8,29.9,29.85,WNW,284,2.0,4.0,70,0.00,,---,0.00,VWS V14.01,2013-02-14 10:54:00,
2013-02-14 05:09:00,38.8,30.6,29.86,WNW,289,2.0,8.0,72,0.00,,---,0.00,VWS V14.01,2013-02-14 11:09:00,
2013-02-14 05:24:00,40.3,31.7,29.86,SW,227,6.0,11.0,71,0.00,,---,0.00,VWS V14.01,2013-02-14 11:24:00,
2013-02-14 05:39:00,40.6,31.6,29.87,West,279,5.0,12.0,70,0.00,,---,0.00,VWS V14.01,2013-02-14 11:39:00,
2013-02-14 05:54:00,40.4,31.8,29.87,West,280,6.0,12.0,71,0.00,,---,0.00,VWS V14.01,2013-02-14 11:54:00,
2013-02-14 06:09:00,40.3,31.7,29.88,WNW,299,1.0,9.0,71,0.00,,---,0.00,VWS V14.01,2013-02-14 12:09:00,
2013-02-14 06:24:00,39.9,31.6,29.89,WNW,289,4.0,9.0,72,0.00,,---,0.00,VWS V14.01,2013-02-14 12:24:00,
2013-02-14 06:39:00,39.5,31.6,29.89,NNW,327,5.0,9.0,73,0.00,,---,0.00,VWS V14.01,2013-02-14 12:39:00,
2013-02-14 06:54:00,39.4,31.5,29.89,NW,312,6.0,11.0,73,0.00,,---,0.00,VWS V14.01,2013-02-14 12:54:00,
2013-02-14 07:09:00,39.2,31.3,29.90,NW,320,0.0,11.0,73,0.00,,---,0.00,VWS V14.01,2013-02-14 13:09:00,
2013-02-14 07:24:00,38.3,30.8,29.91,WNW,301,0.0,6.0,74,0.00,,---,0.00,VWS V14.01,2013-02-14 13:24:00,
2013-02-14 07:39:00,37.5,30.6,29.91,WNW,285,1.0,7.0,76,0.00,,---,0.00,VWS V14.01,2013-02-14 13:39:00,
2013-02-14 07:54:00,38.1,31.2,29.92,WNW,297,2.0,9.0,76,0.00,,---,0.00,VWS V14.01,2013-02-14 13:54:00,
2013-02-14 08:09:00,39.2,31.6,29.93,NW,316,5.0,16.0,74,0.00,,---,0.00,VWS V14.01,2013-02-14 14:09:00,
2013-02-14 08:24:00,40.5,32.2,29.94,WNW,284,8.0,15.0,72,0.00,,---,0.00,VWS V14.01,2013-02-14 14:24:00,
2013-02-14 08:39:00,41.1,32.4,29.94,NW,304,11.0,17.0,71,0.00,,---,0.00,VWS V14.01,2013-02-14 14:39:00,
2013-02-14 08:54:00,41.3,31.9,29.94,NNW,342,11.0,20.0,69,0.00,,---,0.00,VWS V14.01,2013-02-14 14:54:00,
2013-02-14 09:09:00,41.9,32.5,29.95,NW,311,8.0,17.0,69,0.00,,---,0.00,VWS V14.01,2013-02-14 15:09:00,
2013-02-14 09:24:00,42.1,32.3,29.95,NW,323,10.0,18.0,68,0.00,,---,0.00,VWS V14.01,2013-02-14 15:24:00,
2013-02-14 09:39:00,43.0,32.4,29.96,NW,320,5.0,19.0,66,0.00,,---,0.00,VWS V14.01,2013-02-14 15:39:00,
2013-02-14 09:54:00,42.9,32.0,29.95,NNW,331,4.0,19.0,65,0.00,,---,0.00,VWS V14.01,2013-02-14 15:54:00,
2013-02-14 10:09:00,43.3,32.0,29.95,NNW,348,9.0,16.0,64,0.00,,---,0.00,VWS V14.01,2013-02-14 16:09:00,
2013-02-14 10:24:00,43.8,32.0,29.96,NNW,327,9.0,17.0,63,0.00,,---,0.00,VWS V14.01,2013-02-14 16:24:00,
2013-02-14 10:39:00,44.6,31.6,29.96,North,360,15.0,16.0,60,0.00,,---,0.00,VWS V14.01,2013-02-14 16:39:00,
2013-02-14 10:54:00,45.4,31.9,29.97,WNW,302,4.0,15.0,59,0.00,,---,0.00,VWS V14.01,2013-02-14 16:54:00,
2013-02-14 11:09:00,46.0,32.1,29.99,NNW,328,9.0,15.0,58,0.00,,---,0.00,VWS V14.01,2013-02-14 17:09:00,
2013-02-14 11:24:00,46.6,31.3,29.99,WNW,296,7.0,15.0,55,0.00,,---,0.00,VWS V14.01,2013-02-14 17:24:00,
2013-02-14 11:39:00,46.7,31.4,29.98,NNW,344,10.0,19.0,55,0.00,,---,0.00,VWS V14.01,2013-02-14 17:39:00,
2013-02-14 11:54:00,46.9,30.7,29.99,WNW,294,5.0,18.0,53,0.00,,---,0.00,VWS V14.01,2013-02-14 17:54:00,
2013-02-14 12:09:00,46.7,31.0,29.99,NW,308,5.0,18.0,54,0.00,,---,0.00,VWS V14.01,2013-02-14 18:09:00,
2013-02-14 12:24:00,47.0,30.8,29.99,WNW,283,8.0,15.0,53,0.00,,---,0.00,VWS V14.01,2013-02-14 18:24:00,
2013-02-14 12:39:00,47.6,31.8,29.99,West,259,1.0,16.0,54,0.00,,---,0.00,VWS V14.01,2013-02-14 18:39:00,
2013-02-14 12:54:00,47.6,30.9,29.99,WNW,289,12.0,15.0,52,0.00,,---,0.00,VWS V14.01,2013-02-14 18:54:00,
2013-02-14 13:09:00,48.5,32.2,29.99,West,261,3.0,17.0,53,0.00,,---,0.00,VWS V14.01,2013-02-14 19:09:00,
2013-02-14 13:24:00,48.6,30.8,29.98,West,263,9.0,17.0,50,0.00,,---,0.00,VWS V14.01,2013-02-14 19:24:00,
2013-02-14 13:39:00,48.3,32.0,29.98,WNW,292,5.0,17.0,53,0.00,,---,0.00,VWS V14.01,2013-02-14 19:39:00,
2013-02-14 13:54:00,48.6,31.3,29.98,NNW,346,9.0,15.0,51,0.00,,---,0.00,VWS V14.01,2013-02-14 19:54:00,
2013-02-14 14:09:00,49.1,31.8,29.98,NW,323,5.0,14.0,51,0.00,,---,0.00,VWS V14.01,2013-02-14 20:09:00,
2013-02-14 14:24:00,49.1,30.3,29.98,NNW,334,5.0,16.0,48,0.00,,---,0.00,VWS V14.01,2013-02-14 20:24:00,
2013-02-14 14:39:00,49.3,30.5,29.98,WNW,292,6.0,16.0,48,0.00,,---,0.00,VWS V14.01,2013-02-14 20:39:00,
2013-02-14 14:54:00,49.7,31.3,29.98,WNW,288,15.0,15.0,49,0.00,,---,0.00,VWS V14.01,2013-02-14 20:54:00,
2013-02-14 15:09:00,49.7,30.8,29.98,WNW,293,12.0,16.0,48,0.00,,---,0.00,VWS V14.01,2013-02-14 21:09:00,
2013-02-14 15:24:00,49.5,31.1,29.99,WNW,288,6.0,16.0,49,0.00,,---,0.00,VWS V14.01,2013-02-14 21:24:00,
2013-02-14 15:39:00,49.4,31.1,29.99,West,281,10.0,16.0,49,0.00,,---,0.00,VWS V14.01,2013-02-14 21:39:00,
2013-02-14 15:54:00,49.2,30.9,30.00,NW,309,5.0,16.0,49,0.00,,---,0.00,VWS V14.01,2013-02-14 21:54:00,
2013-02-14 16:09:00,49.0,30.2,30.00,West,281,11.0,19.0,48,0.00,,---,0.00,VWS V14.01,2013-02-14 22:09:00,
2013-02-14 16:24:00,48.5,29.7,30.01,WNW,301,6.0,17.0,48,0.00,,---,0.00,VWS V14.01,2013-02-14 22:24:00,
2013-02-14 16:39:00,48.0,29.8,30.01,NNW,331,5.0,19.0,49,0.00,,---,0.00,VWS V14.01,2013-02-14 22:39:00,
2013-02-14 16:54:00,47.2,29.0,30.02,NW,310,9.0,19.0,49,0.00,,---,0.00,VWS V14.01,2013-02-14 22:54:00,
2013-02-14 17:09:00,46.5,27.9,30.03,WNW,284,12.0,15.0,48,0.00,,---,0.00,VWS V14.01,2013-02-14 23:09:00,
2013-02-14 17:24:00,45.9,26.3,30.04,WNW,294,8.0,17.0,46,0.00,,---,0.00,VWS V14.01,2013-02-14 23:24:00,
2013-02-14 17:39:00,45.4,26.9,30.04,NNW,345,6.0,16.0,48,0.00,,---,0.00,VWS V14.01,2013-02-14 23:39:00,
2013-02-14 17:54:00,45.1,26.6,30.04,WNW,290,11.0,17.0,48,0.00,,---,0.00,VWS V14.01,2013-02-14 23:54:00,
2013-02-14 18:09:00,44.7,26.7,30.05,WNW,292,7.0,13.0,49,0.00,,---,0.00,VWS V14.01,2013-02-15 00:09:00,
2013-02-14 18:24:00,44.0,26.1,30.06,WNW,284,6.0,12.0,49,0.00,,---,0.00,VWS V14.01,2013-02-15 00:24:00,
2013-02-14 18:39:00,43.3,25.9,30.07,NW,309,3.0,6.0,50,0.00,,---,0.00,VWS V14.01,2013-02-15 00:39:00,
2013-02-14 18:54:00,42.6,25.8,30.07,WNW,299,1.0,5.0,51,0.00,,---,0.00,VWS V14.01,2013-02-15 00:54:00,
2013-02-14 19:09:00,42.4,26.0,30.07,WNW,284,3.0,10.0,52,0.00,,---,0.00,VWS V14.01,2013-02-15 01:09:00,
2013-02-14 19:24:00,42.2,25.9,30.07,WNW,296,7.0,9.0,52,0.00,,---,0.00,VWS V14.01,2013-02-15 01:24:00,
2013-02-14 19:39:00,41.5,25.7,30.07,WSW,251,1.0,8.0,53,0.00,,---,0.00,VWS V14.01,2013-02-15 01:39:00,
2013-02-14 19:54:00,40.6,25.7,30.07,WSW,252,1.0,4.0,55,0.00,,---,0.00,VWS V14.01,2013-02-15 01:54:00,
2013-02-14 20:09:00,40.2,25.8,30.08,WNW,284,5.0,6.0,56,0.00,,---,0.00,VWS V14.01,2013-02-15 02:09:00,
2013-02-14 20:24:00,40.2,25.8,30.08,WNW,288,3.0,7.0,56,0.00,,---,0.00,VWS V14.01,2013-02-15 02:24:00,
2013-02-14 20:39:00,40.2,25.8,30.08,WNW,283,5.0,8.0,56,0.00,,---,0.00,VWS V14.01,2013-02-15 02:39:00,
2013-02-14 20:54:00,40.0,25.1,30.08,WNW,290,5.0,10.0,55,0.00,,---,0.00,VWS V14.01,2013-02-15 02:54:00,
2013-02-14 21:09:00,39.8,25.0,30.09,WNW,289,3.0,7.0,55,0.00,,---,0.00,VWS V14.01,2013-02-15 03:09:00,
2013-02-14 21:24:00,39.4,24.6,30.09,WNW,292,5.0,7.0,55,0.00,,---,0.00,VWS V14.01,2013-02-15 03:24:00,
2013-02-14 21:39:00,38.9,24.1,30.09,WNW,292,4.0,6.0,55,0.00,,---,0.00,VWS V14.01,2013-02-15 03:39:00,
2013-02-14 21:54:00,38.6,24.3,30.10,WNW,288,5.0,8.0,56,0.00,,---,0.00,VWS V14.01,2013-02-15 03:54:00,
2013-02-14 22:09:00,38.0,23.7,30.11,NW,325,3.0,7.0,56,0.00,,---,0.00,VWS V14.01,2013-02-15 04:09:00,
2013-02-14 22:24:00,37.7,24.3,30.11,NW,311,6.0,9.0,58,0.00,,---,0.00,VWS V14.01,2013-02-15 04:24:00,
2013-02-14 22:39:00,37.1,25.3,30.12,WNW,294,6.0,10.0,62,0.00,,---,0.00,VWS V14.01,2013-02-15 04:39:00,
2013-02-14 22:54:00,36.4,25.8,30.12,NNW,329,2.0,9.0,65,0.00,,---,0.00,VWS V14.01,2013-02-15 04:54:00,
2013-02-14 23:09:00,35.7,25.8,30.13,NW,313,2.0,9.0,67,0.00,,---,0.00,VWS V14.01,2013-02-15 05:09:00,
2013-02-14 23:24:00,35.2,26.8,30.13,NNW,332,4.0,9.0,71,0.00,,---,0.00,VWS V14.01,2013-02-15 05:24:00,
2013-02-14 23:39:00,34.8,27.4,30.13,NW,317,3.0,10.0,74,0.00,,---,0.00,VWS V14.01,2013-02-15 05:39:00,
2013-02-14 23:54:00,34.8,28.0,30.14,WNW,298,2.0,7.0,76,0.00,,---,0.00,VWS V14.01,2013-02-15 05:54:00,